Content
SEND FEEDBACK

Daily
Averages
Monthly
Summary
United States of America

BONO, ARKANSAS


Home > North America > United States > Arkansas
Elevation: 390 feet     Latitude: 35 53N     Longitude: 090 42W

WEATHER
 
SELECT A DAY
Number of Records: 195,650;   Date Range: 1/1/95 - 9/18/14
 
SHARE

PRINT THIS DATA

[ ← Previous Day ]
WEATHER ALMANAC - MARCH 24, 2014
[ Next Day → ]
[ °C ]   °F
Weather ElementAverageHighLow
Temperature40 °F48.9 °F (2:53 pm)28.9 °F (6:53 am)
Dewpoint21.9 °F25 °F (7:53 pm)19.9 °F (12:53 pm)
Humidity50.2 %72 % (6:53 am)32 % (3:53 pm)
Barometer30.24 in30.35 in (7:53 am)30.12 in (4:53 pm)
Wind Speed8.6 mph13.8 mph (10:53 am)
Wind Gust18.4 mph (2:53 pm)
Weather ElementAverage
Visibility10 mi
Wind DirectionENE (80.4 °)

Weather ElementTotal
Precipitation---
Heating Degree Days26.1 (Base 65)
Averaged from 23 records on March 24, 2014
WEATHER CONDITIONS BREAKOUT
WIND DIRECTION BREAKOUT
WEATHER BY HOUR - MARCH 24, 2014
[ °C ]   °F
Local TimeTemperatureDewpointHumidityBarometerVisibilityWind DirectionWind SpeedGust SpeedPrecipitationEventsConditions
1:53 AM34.0 °F23.0 °F64 %30.32 in10.0 miNE (50°)10.4 mphClear
2:53 AM34.0 °F21.0 °F59 %30.31 in10.0 miNE (40°)10.4 mphClear
3:53 AM33.1 °F21.0 °F61 %30.30 in10.0 miNE (50°)9.2 mphClear
4:53 AM32.0 °F21.0 °F64 %30.30 in10.0 miNE (50°)8.1 mphClear
5:53 AM30.0 °F21.0 °F69 %30.30 in10.0 miNE (50°)6.9 mphClear
6:53 AM28.9 °F21.0 °F72 %30.31 in10.0 miNE (50°)5.8 mphClear
7:53 AM33.1 °F21.9 °F64 %30.35 in10.0 miNNE (20°)6.9 mphClear
8:53 AM36.0 °F23.0 °F59 %30.34 in10.0 miNE (50°)12.7 mphClear
9:53 AM39.0 °F23.0 °F53 %30.34 in10.0 miENE (70°)12.7 mphClear
10:53 AM41.0 °F21.0 °F45 %30.32 in10.0 miEast (90°)13.8 mphClear
11:53 AM43.0 °F21.0 °F42 %30.29 in10.0 miENE (70°)8.1 mphScattered Clouds
12:53 PM46.9 °F19.9 °F34 %30.26 in10.0 miNE (50°)10.4 mph17.3 mphClear
1:53 PM46.9 °F21.9 °F37 %30.22 in10.0 miENE (60°)6.9 mphOvercast
2:53 PM48.9 °F21.0 °F33 %30.17 in10.0 miENE (60°)9.2 mph18.4 mphPartly Cloudy
3:53 PM48.9 °F19.9 °F32 %30.14 in10.0 miEast (80°)9.2 mphOvercast
4:53 PM48.0 °F21.9 °F36 %30.12 in10.0 miNE (40°)8.1 mphMostly Cloudy
5:53 PM46.9 °F21.0 °F36 %30.13 in10.0 miNE (50°)11.5 mphPartly Cloudy
6:53 PM46.0 °F21.0 °F37 %30.14 in10.0 miNE (50°)6.9 mphOvercast
7:53 PM44.1 °F25.0 °F47 %30.14 in10.0 miENE (60°)9.2 mphOvercast
8:53 PM42.1 °F25.0 °F51 %30.16 in10.0 miNE (50°)8.1 mphOvercast
9:53 PM39.9 °F25.0 °F55 %30.17 in10.0 miNE (40°)4.6 mphPartly Cloudy
10:53 PM37.9 °F23.0 °F55 %30.17 in10.0 miNorth (360°)3.5 mphClear
11:53 PM39.9 °F21.9 °F49 %30.17 in10.0 miNorth (360°)5.8 mphMostly Cloudy
Hourly data recorded from KJBR, located miles away from Bono, Arkansas







STORIES FROM OUR PARTNERS